Search your local weather  

 

Hazardous Weather Conditions

No active alerts for NEW YORK, NEW YORK

Current Conditions: NEW YORK, NEW YORK

Fair


33.0 F

Last Updated on Dec 11 2019, 9:51 pm EST
Humidity: 45%
Wind Speed: W 9.2 G 24.2 mph
Barometer 30.43 in
Dewpoint: 14.0 F
Visibility: 10.00 mi
Precip: --
Heat Index: NA
Wind Chill: 25 F
Current conditions at:

New York City, Central Park, NY (KNYC)

Lat: 40.78333 Lon: -73.96667

Local Radar Image active severe weather and emergency alerts image image weather storm and storm spotter reports image weather observation monitoring service image
Local
Radar
Active
Alerts
Storm Reports Weather
Monitoring

5 Day Forecast for NEW YORK, NEW YORK (10001)

Wednesday

Mostly Clear

High 36 °F
Wednesday
Night
Clear

Low 25 °F
Thursday

Mostly Clear

High 34 °F
Thursday
Night
Mostly Cloudy

Low 31 °F
Friday

Chance of Rain
High 46 °F
Friday
Night
Rain

Low 45 °F
Saturday

Rain

High 55 °F
Saturday
Night
Mostly Cloudy

Low 43 °F
Sunday

Partly Sunny

High 50 °F

Sign-up For Email & Text Message Weather Alert Notification Services



Advertise Here

Observation History for NEW YORK, NEW YORK


Time Wind
(mph)
Vis
(mi)
Weather Precip (in) Temperature (F) Relative
Humidity
Wind
Chill
(°F)
Heat
Index
(°F)
Pressure
Air Dwpt altimeter
(in)
sea level
(mb)
9:51 pm EST W 9.2 G 24.2 10.00 Fair -- 33.0 14.0 45% 25 NA 30.43 1029.8
8:51 pm EST W 13.8 G 23.0 10.00 Fair -- 34.0 15.1 46% 25 NA 30.40 1028.9
7:51 pm EST W 8.1 10.00 Fair -- 35.0 19.0 52% 28 NA 30.38 1028.2
6:51 pm EST W 15.0 G 20.7 10.00 Fair -- 36.0 18.0 48% 27 NA 30.36 1027.5
5:51 pm EST W 8.1 10.00 Fair -- 36.0 23.0 59% 30 NA 30.34 1026.7
4:51 pm EST 4.6 G 17.3 10.00 A Few Clouds -- 36.0 24.1 62% 32 NA 30.31 1025.7
3:51 pm EST W 10.4 G 17.3 10.00 Partly Cloudy -- 37.0 26.1 65% 30 NA 30.28 1024.7
2:51 pm EST 5.8 10.00 Fair -- 37.0 27.0 67% 32 NA 30.26 1024.0
1:51 pm EST SW 9.2 10.00 Overcast -- 36.0 28.0 73% 29 NA 30.27 1024.2
12:51 pm EST N 0.0 10.00 Overcast -- 36.0 28.0 73% NA NA 30.28 1024.5
11:51 am EST 3.5 10.00 Overcast -- 34.0 27.0 76% NA NA 30.29 1024.7
10:51 am EST N 0.0 10.00 Overcast -- 34.0 27.0 76% NA NA 30.33 1026.2
9:51 am EST N 0.0 10.00 Overcast Trace 32.0 28.0 85% NA NA 30.33 1026.1
8:51 am EST 3.5 0.50 Snow Fog 00.02 32.0 28.9 88% NA NA 30.32 1025.9
7:51 am EST 4.6 10.00 Overcast 00.01 33.0 30.9 92% 29 NA 30.29 1024.8
6:51 am EST N 8.1 10.00 Overcast 00.02 34.0 30.9 89% 27 NA 30.27 1024.1
5:51 am EST N 0.0 1.50 Light Snow Fog/Mist 00.07 33.0 32.0 96% NA NA 30.23 1022.8
4:51 am EST 3.5 2.00 Light Snow Fog/Mist 00.05 34.0 32.0 93% NA NA 30.20 1022.0
3:51 am EST 4.6 3.00 Light Snow Fog/Mist 00.03 34.0 32.0 92% 30 NA 30.20 1021.9
2:51 am EST NW 3.5 10.00 Light Snow 00.02 36.0 33.1 89% NA NA 30.16 1020.5
1:51 am EST NW 8.1 7.00 Light Rain 00.04 36.0 33.1 89% 30 NA 30.14 1019.9
12:51 am EST W 6.9 10.00 Light Rain Trace 39.0 34.0 82% 34 NA 30.12 1019.2
11:51 pm EST 5.8 G 16.1 10.00 Light Rain 00.01 40.0 35.1 83% 36 NA 30.09 1018.0
10:51 pm EST W 11.5 G 20.7 10.00 Light Rain Trace 43.0 33.1 68% 37 NA 30.10 1018.4

Regional Weather Observation

New York, La Guardia Airport, NY (KLGA)

A Few Clouds and Breezy
34.0 F

Newark, Newark International Airport, NJ (KEWR)

Fair
32.0 F

New York, Kennedy International Airport, NY (KJFK)

Fair and Breezy
33.0 F

Teterboro, Teterboro Airport, NJ (KTEB)

Fair
32.0 F

Caldwell, Essex County Airport, NJ (KCDW)

Fair
32.0 F

Morristown Municipal, NJ (KMMU)

A Few Clouds
30.0 F

Advertise Here


Advertise Here